User: anonymous   Login
Location: Asheville, NC
(35.6000°N, 82.5500°W)
Time: 23:09:13
(UTC-04:00)
Language:

CUBEBUG 2 - Orbit

View from above orbital plane
View from above orbital plane
View from above satellite
View from above satellite

Ground track
Ground track

The orbit data is extracted from the following two-line orbital elements,

1 39440U 13066AA  18113.55561961 +.00000271 +00000-0 +44777-4 0  9991
2 39440 097.6047 132.0280 0080850 014.1161 346.2282 14.75648466236667
Epoch (UTC): 23 April 2018 13:20:05
Eccentricity: 0.0080850
inclination: 97.6047°
perigee height: 586 km
apogee height: 700 km
right ascension of ascending node: 132.0280°
argument of perigee: 14.1161°
revolutions per day: 14.75648466
mean anomaly at epoch: 346.2282°
orbit number at epoch: 23666

The dashed part of the orbit path shows where the satellite is in the earth's shadow,  

DLR